STARLINK-11579, 63143

Orbit data source: Space-Track

STARLINK-11579, 63143 is a payload satellite owned by SpaceX/Seattle (US) in LEO that was launched on Mon, 03 Mar 2025 UTC via an FALCON 9 launch vehicle from the Air Force Eastern Test Range (AFETR). Payload-class satellites include a variety of spacecraft equipped with specific instruments for various scientific and technological missions. These include communications satellites like Starlink; space stations such as the ISS; scientific satellites like the Hubble; Earth observation satellites from companies like Planet Labs, Umbra, and HawkEye 360; GPS; miniature CubeSats for education and research; and military/defense satellites.

Loading next visibility...
Identifier
63143, 2025-043M
Orbit
LEO
Country
Flag of USUS
Related business
Manufacturer
SpaceX/Seattle
Mission
Operational Commercial Communications
Bus & Motor
STARLINK V2MD, Unknown motor
Mass
960 kg wet, ~910 kg dry
Launch date (UTC)
2025-03-03 (1 year ago)
Launch vehicle
FALCON 9
Launch site
Air Force Eastern Test Range (AFETR)
Object type
Payload
Rocket body
Debris
Shape & HBR
Box + 2 Pan, 18.1 m
Radar Cross Section
36.964 m², Large (>1 m²)

Expand to show TLE details & history
Last TLE update: 12 hours ago

TLE from 12 hours ago
0 STARLINK-11579
1 63143U 25043M   26171.33336806 -.00086300  00000-0 -67568-3 0  9994
2 63143  43.0007 351.6692 0001613 263.6954 294.1355 15.70852370  5946
Epoch: 2026-06-20T08:00Z
TLE epoch observation values (Epoch: 2026-06-20T08:00:03.000Z)
Latitude
-12.16911°
Longitude
156.40105°
Altitude
358.153 km
Speed
7.696 km/s
True Right ascension
12h 19m 51s
True Declination
-12° 05' 39"
Sunlit
Object was in daylight at epoch
Visualization orbit readout
Latitude
Unknown
Longitude
Unknown
Altitude
Unknown
Speed
Unknown
Apparent Right ascension
Unknown
Apparent Declination
Unknown
Sunlit
N/A
Visualization observer readout
Local Sidereal Time
07:22:51
Azimuth
Unknown
Elevation
Unknown
Doppler factor
Unknown
Orbital elements
Apogee altitude
359.528 km
Perigee altitude
357.355 km
Semi-major axis
6,736.578 km
Eccentricity
0.00016
Inclination
43.0007°
RAAN
351.6692°
Arg. of periapsis
263.6954°
True anomaly
294.11863°
Mean anomaly
294.1355°
Eccentric anomaly
294.12707°
Mean motion
3.9254 °/min
Orbital period
91.71 mins
BSTAR
-0.00067568
Loading maneuver chart data...
Computing Atmospheric mass density...
Loading historical data...
Loading historical data...
Loading historical data...
Loading historical data...
Loading historical data...
Loading historical data...
Loading historical data...

Documentation

Showing up to 5 results
|